,,PA_Meas_PMT16A,,PR_Meas_QMR101_102,,RH_Meas_QMH101,,SR_Meas_QMS101,,TA_Meas_QMH101,,GenWind,,GenWind,
time,status,PA,status,PR,status,RH,status,SR,status,TA,status,DirAvg,status,SpdAvg,
2011-03-26, 00:00:04,VALID,917.872,VALID,0,VALID,96.8403,VALID,0,VALID,17.9287,VALID,13,VALID,0.345313,
2011-03-26, 00:01:04,VALID,917.848,VALID,0,VALID,96.886,VALID,0,VALID,17.9677,VALID,13,VALID,0,
2011-03-26, 00:02:04,VALID,917.834,VALID,0,VALID,96.8631,VALID,0,VALID,17.9886,VALID,13,VALID,0,
2011-03-26, 00:03:04,VALID,917.808,VALID,0,VALID,96.886,VALID,0,VALID,18.0275,VALID,13,VALID,0,
2011-03-26, 00:04:04,VALID,917.797,VALID,0,VALID,96.9012,VALID,0,VALID,18.0262,VALID,13,VALID,0.898438,
2011-03-26, 00:05:04,VALID,917.779,VALID,0,VALID,96.9317,VALID,0,VALID,18.0665,VALID,20,VALID,1.42617,
2011-03-26, 00:06:04,VALID,917.701,VALID,0,VALID,96.9394,VALID,0,VALID,18.0651,VALID,17,VALID,1.24297,
2011-03-26, 00:07:04,VALID,917.646,VALID,0,VALID,96.8936,VALID,0,VALID,18.125,VALID,23,VALID,1.45781,
2011-03-26, 00:08:04,VALID,917.642,VALID,0,VALID,96.9012,VALID,0,VALID,18.1431,VALID,1,VALID,1.25195,
2011-03-26, 00:09:04,VALID,917.628,VALID,0,VALID,96.8707,VALID,0,VALID,18.1431,VALID,334,VALID,1.13867,
2011-03-26, 00:10:04,VALID,917.634,VALID,0,VALID,96.8479,VALID,0,VALID,18.1835,VALID,344,VALID,1.16172,
2011-03-26, 00:11:04,VALID,917.605,VALID,0,VALID,96.8403,VALID,0,VALID,18.1835,VALID,358,VALID,1.01094,
2011-03-26, 00:12:04,VALID,917.584,VALID,0,VALID,96.8098,VALID,0,VALID,18.1835,VALID,358,VALID,0.966797,
2011-03-26, 00:13:04,VALID,917.586,VALID,0,VALID,96.8403,VALID,0,VALID,18.1821,VALID,358,VALID,1.24688,
2011-03-26, 00:14:04,VALID,917.546,VALID,0,VALID,96.8326,VALID,0,VALID,18.2211,VALID,9,VALID,0.933203,
2011-03-26, 00:15:04,VALID,917.556,VALID,0,VALID,96.8784,VALID,0,VALID,18.2406,VALID,21,VALID,1.44609,
2011-03-26, 00:16:04,VALID,917.562,VALID,0,VALID,96.8326,VALID,0,VALID,18.2796,VALID,9,VALID,1.10156,
2011-03-26, 00:17:04,VALID,917.478,VALID,0,VALID,96.8326,VALID,0,VALID,18.299,VALID,5,VALID,1.11211,
2011-03-26, 00:18:04,VALID,917.474,VALID,0,VALID,96.8479,VALID,0,VALID,18.3199,VALID,5,VALID,0.660937,
2011-03-26, 00:19:04,VALID,917.467,VALID,0,VALID,96.7716,VALID,0,VALID,18.3199,VALID,308,VALID,0.774609,
2011-03-26, 00:20:04,VALID,917.424,VALID,0,VALID,96.7869,VALID,0.107441,VALID,18.3394,VALID,5,VALID,0.757422,
2011-03-26, 00:21:04,VALID,917.462,VALID,0,VALID,96.7411,VALID,0,VALID,18.299,VALID,5,VALID,0.622656,
2011-03-26, 00:22:04,VALID,917.479,VALID,0,VALID,96.7411,VALID,0,VALID,18.3199,VALID,349,VALID,0.876562,
2011-03-26, 00:23:04,VALID,917.498,VALID,0,VALID,96.8098,VALID,0,VALID,18.338,VALID,352,VALID,1.44648,
2011-03-26, 00:24:04,VALID,917.503,VALID,0,VALID,96.764,VALID,0,VALID,18.3575,VALID,17,VALID,1.39805,
2011-03-26, 00:25:04,VALID,917.538,VALID,0,VALID,96.764,VALID,0,VALID,18.4174,VALID,17,VALID,0.775781,
2011-03-26, 00:26:04,VALID,917.555,VALID,0,VALID,96.7259,VALID,0,VALID,18.377,VALID,17,VALID,0.397656,
2011-03-26, 00:27:04,VALID,917.56,VALID,0,VALID,96.7259,VALID,0,VALID,18.3965,VALID,17,VALID,0.00625,
2011-03-26, 00:28:04,VALID,917.628,VALID,0,VALID,96.6878,VALID,0.107441,VALID,18.3965,VALID,282,VALID,0.807813,
2011-03-26, 00:29:04,VALID,917.663,VALID,0,VALID,96.6573,VALID,0,VALID,18.377,VALID,218,VALID,1.07813,
2011-03-26, 00:30:04,VALID,917.713,VALID,0.2,VALID,96.642,VALID,0,VALID,18.3784,VALID,218,VALID,1.45117,
2011-03-26, 00:31:04,VALID,917.691,VALID,0,VALID,96.6115,VALID,0,VALID,18.3784,VALID,213,VALID,1.23008,
2011-03-26, 00:32:04,VALID,917.676,VALID,0.2,VALID,96.6344,VALID,0,VALID,18.3575,VALID,217,VALID,0.70625,
2011-03-26, 00:33:04,VALID,917.603,VALID,0.4,VALID,96.6649,VALID,0,VALID,18.3784,VALID,217,VALID,0.532031,
2011-03-26, 00:34:04,VALID,917.615,VALID,0.2,VALID,96.6192,VALID,0,VALID,18.3575,VALID,330,VALID,0.867578,
2011-03-26, 00:35:04,VALID,917.668,VALID,0.2,VALID,96.6192,VALID,0,VALID,18.3589,VALID,330,VALID,0.596875,
2011-03-26, 00:36:04,VALID,917.651,VALID,0,VALID,96.6725,VALID,0,VALID,18.338,VALID,330,VALID,0.605469,
2011-03-26, 00:37:04,VALID,917.711,VALID,0,VALID,96.7488,VALID,0,VALID,18.3561,VALID,205,VALID,0.760156,
2011-03-26, 00:38:04,VALID,917.729,VALID,0,VALID,96.6878,VALID,0,VALID,18.3575,VALID,223,VALID,1.07383,
2011-03-26, 00:39:04,VALID,917.742,VALID,0,VALID,96.7107,VALID,0,VALID,18.377,VALID,113,VALID,0.517578,
2011-03-26, 00:40:04,VALID,917.799,VALID,0.2,VALID,96.6954,VALID,0,VALID,18.3575,VALID,205,VALID,1.46992,
2011-03-26, 00:41:04,VALID,917.849,VALID,0,VALID,96.6649,VALID,0.107441,VALID,18.3185,VALID,225,VALID,1.35391,
2011-03-26, 00:42:04,VALID,917.824,VALID,0,VALID,96.6039,VALID,0,VALID,18.2796,VALID,225,VALID,0.930859,
2011-03-26, 00:43:04,VALID,917.825,VALID,0,VALID,96.6878,VALID,0,VALID,18.2796,VALID,225,VALID,0.275,
2011-03-26, 00:44:04,VALID,917.855,VALID,0,VALID,96.6954,VALID,0,VALID,18.2601,VALID,225,VALID,0.608594,
2011-03-26, 00:45:04,VALID,917.884,VALID,0,VALID,96.7183,VALID,0,VALID,18.2809,VALID,261,VALID,1.0207,
2011-03-26, 00:46:04,VALID,917.909,VALID,0,VALID,96.703,VALID,0,VALID,18.2406,VALID,301,VALID,1.15156,
2011-03-26, 00:47:04,VALID,917.911,VALID,0,VALID,96.764,VALID,0,VALID,18.2406,VALID,301,VALID,0.8125,
2011-03-26, 00:48:04,VALID,917.885,VALID,0,VALID,96.7793,VALID,0.107441,VALID,18.2796,VALID,312,VALID,0.658594,
2011-03-26, 00:49:04,VALID,917.912,VALID,0,VALID,96.8174,VALID,0,VALID,18.2796,VALID,312,VALID,0.729688,
2011-03-26, 00:50:04,VALID,917.922,VALID,0,VALID,96.7716,VALID,0,VALID,18.299,VALID,312,VALID,0.673828,
2011-03-26, 00:51:04,VALID,917.977,VALID,0,VALID,96.7945,VALID,0,VALID,18.299,VALID,249,VALID,1.63086,
2011-03-26, 00:52:04,VALID,917.993,VALID,0,VALID,96.8098,VALID,0,VALID,18.3185,VALID,270,VALID,1.14063,
2011-03-26, 00:53:04,VALID,917.958,VALID,0,VALID,96.7716,VALID,0,VALID,18.338,VALID,244,VALID,0.650391,
2011-03-26, 00:54:04,VALID,917.962,VALID,0,VALID,96.6649,VALID,0,VALID,18.3965,VALID,228,VALID,1.46523,
2011-03-26, 00:55:04,VALID,917.938,VALID,0,VALID,96.4057,VALID,0,VALID,18.3951,VALID,292,VALID,2.9207,
2011-03-26, 00:56:04,VALID,917.94,VALID,0,VALID,96.0855,VALID,0,VALID,18.533,VALID,110,VALID,0.826953,
2011-03-26, 00:57:04,VALID,917.939,VALID,0,VALID,95.6281,VALID,0.107441,VALID,18.6109,VALID,228,VALID,2.30938,
2011-03-26, 00:58:04,VALID,918.017,VALID,0,VALID,94.6981,VALID,0,VALID,18.7098,VALID,260,VALID,2.27383,
2011-03-26, 00:59:04,VALID,917.947,VALID,0,VALID,93.9434,VALID,0,VALID,18.7279,VALID,304,VALID,1.56836,
2011-03-26, 01:00:04,VALID,917.989,VALID,0,VALID,93.3259,VALID,0,VALID,18.7279,VALID,255,VALID,2.3207,
2011-03-26, 01:01:04,VALID,918.023,VALID,0,VALID,92.9599,VALID,0,VALID,18.8059,VALID,294,VALID,0.64375,
2011-03-26, 01:02:04,VALID,918.048,VALID,0,VALID,93.3259,VALID,0,VALID,18.8073,VALID,294,VALID,0.837109,
2011-03-26, 01:03:04,VALID,918.052,VALID,0,VALID,93.6155,VALID,0,VALID,18.7878,VALID,294,VALID,0.725,
2011-03-26, 01:04:04,VALID,918.039,VALID,0,VALID,93.8214,VALID,0,VALID,18.7084,VALID,294,VALID,0.397656,
2011-03-26, 01:05:04,VALID,918.042,VALID,0,VALID,94.1111,VALID,0,VALID,18.6499,VALID,294,VALID,0.586328,
2011-03-26, 01:06:04,VALID,917.952,VALID,0,VALID,94.3855,VALID,0,VALID,18.572,VALID,294,VALID,0.664844,
2011-03-26, 01:07:04,VALID,917.896,VALID,0,VALID,94.6523,VALID,0,VALID,18.5135,VALID,224,VALID,0.452344,
2011-03-26, 01:08:04,VALID,917.9,VALID,0,VALID,94.8505,VALID,0,VALID,18.4745,VALID,224,VALID,0.690625,
2011-03-26, 01:09:04,VALID,917.809,VALID,0,VALID,94.9344,VALID,0,VALID,18.4745,VALID,224,VALID,0.337109,
2011-03-26, 01:10:04,VALID,917.801,VALID,0,VALID,94.9801,VALID,0,VALID,18.455,VALID,224,VALID,0.362891,
2011-03-26, 01:11:04,VALID,917.846,VALID,0,VALID,94.9954,VALID,0,VALID,18.455,VALID,261,VALID,1.05508,
2011-03-26, 01:12:04,VALID,917.862,VALID,0,VALID,95.0183,VALID,0,VALID,18.4759,VALID,262,VALID,0.164063,
2011-03-26, 01:13:04,VALID,917.823,VALID,0,VALID,95.0716,VALID,0,VALID,18.4759,VALID,262,VALID,0.64375,
2011-03-26, 01:14:04,VALID,917.822,VALID,0,VALID,95.1936,VALID,0,VALID,18.455,VALID,262,VALID,0.858203,
2011-03-26, 01:15:04,VALID,917.775,VALID,0,VALID,95.3994,VALID,0,VALID,18.455,VALID,31,VALID,1.72656,
2011-03-26, 01:16:04,VALID,917.773,VALID,0,VALID,95.5138,VALID,0,VALID,18.4564,VALID,31,VALID,1.63398,
2011-03-26, 01:17:04,VALID,917.818,VALID,0,VALID,95.6739,VALID,0,VALID,18.416,VALID,31,VALID,0.785547,
2011-03-26, 01:18:04,VALID,917.826,VALID,0,VALID,95.8721,VALID,0,VALID,18.4369,VALID,31,VALID,0.0078125,
2011-03-26, 01:19:04,VALID,917.76,VALID,0,VALID,95.9407,VALID,0,VALID,18.4369,VALID,357,VALID,1.11484,
2011-03-26, 01:20:04,VALID,917.786,VALID,0,VALID,96.0093,VALID,0,VALID,18.3756,VALID,217,VALID,0.473828,
2011-03-26, 01:21:04,VALID,917.799,VALID,0,VALID,96.1008,VALID,0,VALID,18.3979,VALID,249,VALID,0.626172,
2011-03-26, 01:22:04,VALID,917.796,VALID,0,VALID,96.1541,VALID,0,VALID,18.377,VALID,249,VALID,0.132422,
2011-03-26, 01:23:04,VALID,917.824,VALID,0,VALID,96.2304,VALID,0,VALID,18.3979,VALID,249,VALID,0.0878906,
2011-03-26, 01:24:04,VALID,917.818,VALID,0,VALID,96.3066,VALID,0,VALID,18.377,VALID,249,VALID,0.449609,
2011-03-26, 01:25:04,VALID,917.777,VALID,0.2,VALID,96.36,VALID,0,VALID,18.3784,VALID,249,VALID,0.664453,
2011-03-26, 01:26:04,VALID,917.879,VALID,0,VALID,96.3981,VALID,0,VALID,18.338,VALID,249,VALID,1.01797,
2011-03-26, 01:27:04,VALID,917.853,VALID,0.2,VALID,96.4438,VALID,0,VALID,18.3575,VALID,249,VALID,0.682031,
2011-03-26, 01:28:04,VALID,917.849,VALID,0.2,VALID,96.5201,VALID,0.107441,VALID,18.3575,VALID,249,VALID,0.351953,
2011-03-26, 01:29:04,VALID,917.868,VALID,0,VALID,96.4896,VALID,0,VALID,18.3185,VALID,215,VALID,0.958203,
2011-03-26, 01:30:04,VALID,917.838,VALID,0,VALID,96.5429,VALID,0,VALID,18.3394,VALID,215,VALID,0.625,
2011-03-26, 01:31:04,VALID,917.849,VALID,0,VALID,96.5582,VALID,0,VALID,18.3394,VALID,215,VALID,0.660156,
2011-03-26, 01:32:04,VALID,917.831,VALID,0,VALID,96.5658,VALID,0,VALID,18.3185,VALID,52,VALID,1.63047,
2011-03-26, 01:33:04,VALID,917.816,VALID,0,VALID,96.6115,VALID,0,VALID,18.338,VALID,10,VALID,1.12422,
2011-03-26, 01:34:04,VALID,917.805,VALID,0,VALID,96.642,VALID,0,VALID,18.3394,VALID,54,VALID,1.72852,
2011-03-26, 01:35:04,VALID,917.799,VALID,0,VALID,96.6497,VALID,0,VALID,18.338,VALID,73,VALID,0.703516,
2011-03-26, 01:36:04,VALID,917.804,VALID,0,VALID,96.6192,VALID,0,VALID,18.3185,VALID,215,VALID,0.560938,
2011-03-26, 01:37:04,VALID,917.765,VALID,0.2,VALID,96.6802,VALID,0,VALID,18.338,VALID,215,VALID,0.278516,
2011-03-26, 01:38:04,VALID,917.72,VALID,0,VALID,96.7107,VALID,0,VALID,18.3589,VALID,215,VALID,0.00585938,
2011-03-26, 01:39:04,VALID,917.757,VALID,0,VALID,96.7107,VALID,0,VALID,18.3575,VALID,142,VALID,0.798828,
2011-03-26, 01:40:04,VALID,917.733,VALID,0,VALID,96.703,VALID,0,VALID,18.338,VALID,72,VALID,0.881641,
2011-03-26, 01:41:04,VALID,917.745,VALID,0,VALID,96.7488,VALID,0,VALID,18.3589,VALID,72,VALID,0.194531,
2011-03-26, 01:42:04,VALID,917.723,VALID,0,VALID,96.7411,VALID,0,VALID,18.3575,VALID,72,VALID,0.0046875,
2011-03-26, 01:43:04,VALID,917.75,VALID,0,VALID,96.764,VALID,0,VALID,18.338,VALID,72,VALID,0.169922,
2011-03-26, 01:44:04,VALID,917.723,VALID,0,VALID,96.764,VALID,0,VALID,18.3575,VALID,72,VALID,0.176563,
2011-03-26, 01:45:04,VALID,917.67,VALID,0,VALID,96.8021,VALID,0,VALID,18.3575,VALID,72,VALID,0.846484,
2011-03-26, 01:46:04,VALID,917.704,VALID,0,VALID,96.7411,VALID,0,VALID,18.377,VALID,28,VALID,0.832812,
2011-03-26, 01:47:04,VALID,917.715,VALID,0,VALID,96.8021,VALID,0,VALID,18.3575,VALID,1,VALID,0.58125,
2011-03-26, 01:48:04,VALID,917.703,VALID,0,VALID,96.8174,VALID,0,VALID,18.3784,VALID,1,VALID,0.530859,
2011-03-26, 01:49:04,VALID,917.722,VALID,0,VALID,96.8326,VALID,0,VALID,18.3979,VALID,1,VALID,0.144531,
2011-03-26, 01:50:04,VALID,917.686,VALID,0,VALID,96.8403,VALID,0,VALID,18.3575,VALID,8,VALID,0.507422,
2011-03-26, 01:51:04,VALID,917.649,VALID,0,VALID,96.764,VALID,0,VALID,18.3185,VALID,24,VALID,0.312109,
2011-03-26, 01:52:04,VALID,917.631,VALID,0,VALID,96.8098,VALID,0,VALID,18.3394,VALID,24,VALID,0.583203,
2011-03-26, 01:53:04,VALID,917.617,VALID,0,VALID,96.8555,VALID,0,VALID,18.338,VALID,24,VALID,0.304297,
2011-03-26, 01:54:04,VALID,917.585,VALID,0,VALID,96.8707,VALID,0,VALID,18.3185,VALID,24,VALID,0.126953,
2011-03-26, 01:55:04,VALID,917.566,VALID,0,VALID,96.8555,VALID,0,VALID,18.3185,VALID,24,VALID,0.505078,
2011-03-26, 01:56:04,VALID,917.546,VALID,0,VALID,96.9012,VALID,0,VALID,18.338,VALID,24,VALID,0.764844,
2011-03-26, 01:57:04,VALID,917.545,VALID,0,VALID,96.8326,VALID,0,VALID,18.3185,VALID,24,VALID,0.630859,
2011-03-26, 01:58:04,VALID,917.544,VALID,0,VALID,96.8326,VALID,0,VALID,18.299,VALID,24,VALID,0.751172,
2011-03-26, 01:59:04,VALID,917.526,VALID,0,VALID,96.8707,VALID,0,VALID,18.299,VALID,24,VALID,0.798047,
2011-03-26, 02:00:04,VALID,917.53,VALID,0,VALID,96.886,VALID,0,VALID,18.2809,VALID,24,VALID,0.722656,
2011-03-26, 02:01:04,VALID,917.537,VALID,0,VALID,96.9089,VALID,0,VALID,18.2406,VALID,24,VALID,0.936328,
2011-03-26, 02:02:04,VALID,917.517,VALID,0,VALID,96.9317,VALID,0,VALID,18.2601,VALID,24,VALID,0.932422,
2011-03-26, 02:03:04,VALID,917.474,VALID,0,VALID,96.9394,VALID,0,VALID,18.2796,VALID,24,VALID,0.657422,
2011-03-26, 02:04:04,VALID,917.503,VALID,0,VALID,96.9394,VALID,0,VALID,18.3004,VALID,24,VALID,0.336328,
2011-03-26, 02:05:04,VALID,917.506,VALID,0,VALID,96.9851,VALID,0,VALID,18.2601,VALID,24,VALID,0.635547,
2011-03-26, 02:06:04,VALID,917.485,VALID,0,VALID,96.9927,VALID,0,VALID,18.2601,VALID,15,VALID,1.00273,
2011-03-26, 02:07:04,VALID,917.477,VALID,0,VALID,96.9622,VALID,0,VALID,18.2809,VALID,15,VALID,1.03398,
2011-03-26, 02:08:04,VALID,917.483,VALID,0,VALID,96.9927,VALID,0,VALID,18.2809,VALID,15,VALID,0.514063,
2011-03-26, 02:09:04,VALID,917.456,VALID,0,VALID,97.0308,VALID,0,VALID,18.2796,VALID,15,VALID,0.684375,
2011-03-26, 02:10:04,VALID,917.398,VALID,0,VALID,97.0537,VALID,0,VALID,18.2796,VALID,23,VALID,0.842188,
2011-03-26, 02:11:04,VALID,917.432,VALID,0,VALID,97.0461,VALID,0,VALID,18.299,VALID,23,VALID,0.383203,
2011-03-26, 02:12:04,VALID,917.4,VALID,0,VALID,97.069,VALID,0,VALID,18.3185,VALID,23,VALID,0.103125,
2011-03-26, 02:13:04,VALID,917.36,VALID,0,VALID,97.0461,VALID,0,VALID,18.299,VALID,23,VALID,0.0804688,
2011-03-26, 02:14:04,VALID,917.348,VALID,0,VALID,96.9775,VALID,0,VALID,18.2601,VALID,293,VALID,1.26055,
2011-03-26, 02:15:04,VALID,917.354,VALID,0,VALID,97.0156,VALID,0,VALID,18.2406,VALID,261,VALID,0.397266,
2011-03-26, 02:16:04,VALID,917.337,VALID,0,VALID,97.0461,VALID,0,VALID,18.2601,VALID,261,VALID,0.388672,
2011-03-26, 02:17:04,VALID,917.316,VALID,0,VALID,97.1528,VALID,0,VALID,18.2601,VALID,28,VALID,0.609375,
2011-03-26, 02:18:04,VALID,917.296,VALID,0,VALID,97.1223,VALID,0,VALID,18.299,VALID,28,VALID,0.075,
2011-03-26, 02:19:04,VALID,917.3,VALID,0,VALID,97.0842,VALID,0,VALID,18.2796,VALID,28,VALID,0.119922,
2011-03-26, 02:20:04,VALID,917.263,VALID,0,VALID,97.0842,VALID,0,VALID,18.2601,VALID,28,VALID,0.207422,
2011-03-26, 02:21:04,VALID,917.265,VALID,0,VALID,97.1299,VALID,0,VALID,18.299,VALID,28,VALID,0.185937,
2011-03-26, 02:22:04,VALID,917.295,VALID,0,VALID,97.1376,VALID,0,VALID,18.3185,VALID,28,VALID,0.150781,
2011-03-26, 02:23:04,VALID,917.232,VALID,0,VALID,97.0842,VALID,0,VALID,18.299,VALID,28,VALID,0.212109,
2011-03-26, 02:24:04,VALID,917.209,VALID,0,VALID,97.0918,VALID,0,VALID,18.299,VALID,28,VALID,0.151562,
2011-03-26, 02:25:04,VALID,917.22,VALID,0,VALID,97.1223,VALID,0,VALID,18.299,VALID,17,VALID,1.35781,
2011-03-26, 02:26:04,VALID,917.223,VALID,0.2,VALID,97.1223,VALID,0,VALID,18.2796,VALID,18,VALID,1.61406,
2011-03-26, 02:27:04,VALID,917.177,VALID,0,VALID,97.1299,VALID,0,VALID,18.2796,VALID,30,VALID,1.28867,
2011-03-26, 02:28:04,VALID,917.228,VALID,0,VALID,97.0994,VALID,0,VALID,18.2601,VALID,32,VALID,1.04688,
2011-03-26, 02:29:04,VALID,917.26,VALID,0,VALID,97.1147,VALID,0,VALID,18.2601,VALID,18,VALID,0.337891,
2011-03-26, 02:30:04,VALID,917.251,VALID,0,VALID,97.1147,VALID,0,VALID,18.2601,VALID,18,VALID,0.412891,
2011-03-26, 02:31:04,VALID,917.182,VALID,0,VALID,97.1528,VALID,0,VALID,18.2796,VALID,18,VALID,0.566797,
2011-03-26, 02:32:04,VALID,917.173,VALID,0,VALID,97.1299,VALID,0,VALID,18.2796,VALID,18,VALID,0.978125,
2011-03-26, 02:33:04,VALID,917.146,VALID,0,VALID,97.1452,VALID,0,VALID,18.2796,VALID,18,VALID,0.365625,
2011-03-26, 02:34:04,VALID,917.19,VALID,0,VALID,97.1376,VALID,0,VALID,18.2796,VALID,18,VALID,0.239844,
2011-03-26, 02:35:04,VALID,917.191,VALID,0,VALID,97.1299,VALID,0,VALID,18.2796,VALID,18,VALID,0.827344,
2011-03-26, 02:36:04,VALID,917.227,VALID,0,VALID,97.1604,VALID,0,VALID,18.2796,VALID,18,VALID,0.699219,
2011-03-26, 02:37:04,VALID,917.206,VALID,0,VALID,97.1604,VALID,0,VALID,18.3199,VALID,18,VALID,0.49375,
2011-03-26, 02:38:04,VALID,917.207,VALID,0,VALID,97.1299,VALID,0,VALID,18.299,VALID,18,VALID,0.816016,
2011-03-26, 02:39:04,VALID,917.205,VALID,0,VALID,97.1681,VALID,0,VALID,18.299,VALID,32,VALID,1.00195,
2011-03-26, 02:40:04,VALID,917.158,VALID,0,VALID,97.1757,VALID,0,VALID,18.3199,VALID,19,VALID,0.880078,
2011-03-26, 02:41:04,VALID,917.168,VALID,0,VALID,97.1833,VALID,0,VALID,18.338,VALID,19,VALID,0.849219,
2011-03-26, 02:42:04,VALID,917.154,VALID,0,VALID,97.1833,VALID,0,VALID,18.338,VALID,19,VALID,0.923437,
2011-03-26, 02:43:04,VALID,917.151,VALID,0,VALID,97.1909,VALID,0,VALID,18.338,VALID,19,VALID,0.495313,
2011-03-26, 02:44:04,VALID,917.154,VALID,0,VALID,97.1528,VALID,0,VALID,18.338,VALID,19,VALID,0.742578,
2011-03-26, 02:45:04,VALID,917.125,VALID,0,VALID,97.1909,VALID,0,VALID,18.338,VALID,19,VALID,0.858984,
2011-03-26, 02:46:04,VALID,917.089,VALID,0,VALID,97.1604,VALID,0,VALID,18.3185,VALID,19,VALID,0.964844,
2011-03-26, 02:47:04,VALID,917.083,VALID,0,VALID,97.1833,VALID,0,VALID,18.338,VALID,19,VALID,0.273438,
2011-03-26, 02:48:04,VALID,917.063,VALID,0,VALID,97.1833,VALID,0,VALID,18.3575,VALID,19,VALID,0,
2011-03-26, 02:49:04,VALID,917.044,VALID,0,VALID,97.1986,VALID,0,VALID,18.377,VALID,19,VALID,0,
2011-03-26, 02:50:04,VALID,917.055,VALID,0,VALID,97.1833,VALID,0,VALID,18.3575,VALID,19,VALID,0,
2011-03-26, 02:51:04,VALID,917.06,VALID,0,VALID,97.2062,VALID,0,VALID,18.3575,VALID,19,VALID,0,
2011-03-26, 02:52:04,VALID,917.054,VALID,0,VALID,97.2214,VALID,0,VALID,18.377,VALID,19,VALID,0.553125,
2011-03-26, 02:53:04,VALID,917.049,VALID,0,VALID,97.1909,VALID,0,VALID,18.377,VALID,19,VALID,0.133984,
2011-03-26, 02:54:04,VALID,917.03,VALID,0,VALID,97.1452,VALID,0,VALID,18.338,VALID,256,VALID,1.19727,
2011-03-26, 02:55:04,VALID,917.01,VALID,0,VALID,97.1681,VALID,0,VALID,18.338,VALID,29,VALID,0.638281,
2011-03-26, 02:56:04,VALID,916.98,VALID,0,VALID,97.1604,VALID,0,VALID,18.338,VALID,337,VALID,0.967969,
2011-03-26, 02:57:04,VALID,917.001,VALID,0,VALID,97.1681,VALID,0,VALID,18.3575,VALID,350,VALID,0.803516,
2011-03-26, 02:58:04,VALID,916.99,VALID,0,VALID,97.1833,VALID,0.107441,VALID,18.3575,VALID,76,VALID,0.625781,
2011-03-26, 02:59:04,VALID,916.967,VALID,0,VALID,97.1909,VALID,0,VALID,18.338,VALID,64,VALID,0.592578,
2011-03-26, 03:00:04,VALID,916.937,VALID,0,VALID,97.2062,VALID,0,VALID,18.338,VALID,64,VALID,0.547656,
2011-03-26, 03:01:04,VALID,916.965,VALID,0,VALID,97.1833,VALID,0,VALID,18.338,VALID,205,VALID,0.872266,
2011-03-26, 03:02:04,VALID,916.941,VALID,0,VALID,97.1909,VALID,0,VALID,18.338,VALID,205,VALID,0.0328125,
2011-03-26, 03:03:04,VALID,916.956,VALID,0,VALID,97.2062,VALID,0,VALID,18.338,VALID,205,VALID,0.483203,
2011-03-26, 03:04:04,VALID,916.931,VALID,0,VALID,97.1986,VALID,0,VALID,18.3589,VALID,205,VALID,0.219141,
2011-03-26, 03:05:04,VALID,916.976,VALID,0,VALID,97.2138,VALID,0,VALID,18.3575,VALID,205,VALID,0.323828,
2011-03-26, 03:06:04,VALID,916.937,VALID,0,VALID,97.229,VALID,0,VALID,18.3575,VALID,205,VALID,0.258984,
2011-03-26, 03:07:04,VALID,916.911,VALID,0,VALID,97.2443,VALID,0,VALID,18.377,VALID,205,VALID,0.201562,
2011-03-26, 03:08:04,VALID,916.914,VALID,0,VALID,97.2367,VALID,0.107441,VALID,18.3965,VALID,205,VALID,0,
2011-03-26, 03:09:04,VALID,916.906,VALID,0,VALID,97.2062,VALID,0,VALID,18.4174,VALID,205,VALID,0.00117188,
2011-03-26, 03:10:04,VALID,916.914,VALID,0,VALID,97.1909,VALID,0,VALID,18.3965,VALID,205,VALID,0.235547,
2011-03-26, 03:11:04,VALID,916.879,VALID,0,VALID,97.2062,VALID,0,VALID,18.377,VALID,205,VALID,0.560547,
2011-03-26, 03:12:04,VALID,916.869,VALID,0,VALID,97.2214,VALID,0,VALID,18.377,VALID,205,VALID,0.330078,
2011-03-26, 03:13:04,VALID,916.875,VALID,0,VALID,97.229,VALID,0,VALID,18.3965,VALID,205,VALID,0.385547,
2011-03-26, 03:14:04,VALID,916.811,VALID,0,VALID,97.2367,VALID,0,VALID,18.416,VALID,205,VALID,0.637891,
2011-03-26, 03:15:04,VALID,916.85,VALID,0,VALID,97.2367,VALID,0,VALID,18.416,VALID,205,VALID,0.635547,
2011-03-26, 03:16:04,VALID,916.849,VALID,0,VALID,97.2443,VALID,0.107441,VALID,18.416,VALID,337,VALID,0.887109,
2011-03-26, 03:17:04,VALID,916.844,VALID,0,VALID,97.2062,VALID,0,VALID,18.3965,VALID,271,VALID,0.447656,
2011-03-26, 03:18:04,VALID,916.836,VALID,0,VALID,97.2367,VALID,0,VALID,18.416,VALID,43,VALID,1.09805,
2011-03-26, 03:19:04,VALID,916.835,VALID,0,VALID,97.2443,VALID,0,VALID,18.4355,VALID,43,VALID,0.0894531,
2011-03-26, 03:20:04,VALID,916.839,VALID,0,VALID,97.2443,VALID,0,VALID,18.455,VALID,43,VALID,0.820313,
2011-03-26, 03:21:04,VALID,916.848,VALID,0,VALID,97.2519,VALID,0,VALID,18.4759,VALID,43,VALID,0.283203,
2011-03-26, 03:22:04,VALID,916.847,VALID,0,VALID,97.2367,VALID,0,VALID,18.4745,VALID,43,VALID,0.754297,
2011-03-26, 03:23:04,VALID,916.813,VALID,0,VALID,97.2443,VALID,0,VALID,18.4745,VALID,43,VALID,0.354688,
2011-03-26, 03:24:04,VALID,916.833,VALID,0,VALID,97.2443,VALID,0,VALID,18.4745,VALID,43,VALID,0.400781,
2011-03-26, 03:25:04,VALID,916.846,VALID,0,VALID,97.2367,VALID,0,VALID,18.455,VALID,43,VALID,1.1207,
2011-03-26, 03:26:04,VALID,916.876,VALID,0,VALID,97.2443,VALID,0,VALID,18.4759,VALID,43,VALID,0.471484,
2011-03-26, 03:27:04,VALID,916.87,VALID,0,VALID,97.2443,VALID,0,VALID,18.4536,VALID,43,VALID,0.292578,
2011-03-26, 03:28:04,VALID,916.831,VALID,0,VALID,97.2748,VALID,0,VALID,18.4731,VALID,43,VALID,0.732031,
2011-03-26, 03:29:04,VALID,916.835,VALID,0,VALID,97.2443,VALID,0,VALID,18.4745,VALID,22,VALID,1.38398,
2011-03-26, 03:30:04,VALID,916.783,VALID,0,VALID,97.2595,VALID,0,VALID,18.5135,VALID,315,VALID,0.746094,
2011-03-26, 03:31:04,VALID,916.796,VALID,0,VALID,97.2595,VALID,0,VALID,18.5135,VALID,21,VALID,0.423828,
2011-03-26, 03:32:04,VALID,916.753,VALID,0,VALID,97.2519,VALID,0,VALID,18.494,VALID,21,VALID,1.04297,
2011-03-26, 03:33:05,VALID,916.773,VALID,0,VALID,97.2519,VALID,0.107441,VALID,18.5135,VALID,21,VALID,0.328516,
2011-03-26, 03:34:05,VALID,916.795,VALID,0,VALID,97.2519,VALID,0,VALID,18.4745,VALID,21,VALID,0.0457031,
2011-03-26, 03:35:05,VALID,916.83,VALID,0,VALID,97.2672,VALID,0,VALID,18.494,VALID,21,VALID,0.201562,
2011-03-26, 03:36:05,VALID,916.841,VALID,0,VALID,97.2672,VALID,0,VALID,18.494,VALID,21,VALID,0.0222656,
2011-03-26, 03:37:05,VALID,916.827,VALID,0,VALID,97.29,VALID,0,VALID,18.4926,VALID,23,VALID,1.29258,
2011-03-26, 03:38:05,VALID,916.836,VALID,0,VALID,97.2824,VALID,0,VALID,18.533,VALID,35,VALID,0.672656,
2011-03-26, 03:39:05,VALID,916.878,VALID,0,VALID,97.2977,VALID,0,VALID,18.5525,VALID,35,VALID,0,
2011-03-26, 03:40:05,VALID,916.812,VALID,0,VALID,97.2672,VALID,0,VALID,18.5525,VALID,35,VALID,0.523438,
2011-03-26, 03:41:05,VALID,916.818,VALID,0,VALID,97.2824,VALID,0,VALID,18.572,VALID,35,VALID,0.618359,
2011-03-26, 03:42:05,VALID,916.827,VALID,0,VALID,97.2824,VALID,0,VALID,18.572,VALID,27,VALID,1.04727,
2011-03-26, 03:43:05,VALID,916.796,VALID,0,VALID,97.2672,VALID,0,VALID,18.5525,VALID,8,VALID,1.28984,
2011-03-26, 03:44:05,VALID,916.793,VALID,0,VALID,97.29,VALID,0,VALID,18.572,VALID,8,VALID,0.289453,
2011-03-26, 03:45:05,VALID,916.76,VALID,0,VALID,97.29,VALID,0,VALID,18.5525,VALID,17,VALID,1.36172,
2011-03-26, 03:46:05,VALID,916.722,VALID,0,VALID,97.2824,VALID,0,VALID,18.5525,VALID,41,VALID,1.53555,